When you browse on this site, cookies collect data to enhance your experience and personalize the content and advertising you see.
Visit our Privacy Policy to learn more. By continuing to use the site, you agree to this use of cookies and data.
  • In Czech Republic
  • List of Countries
  • For 7 days
  • Water Temperature
  • Satellite Maps
  • Weather Map
  • Weather Widgets
  • user-avatar
    Login

    Hourly Weather Edmundston

    Today, 26 April, Friday

    Time Temperature Precipitation Wind Pressure Humidity
    00:00 +4°C° 0 mm 2 mps 704 mmHg 36%
    01:00 +4°C° 0 mm 2 mps 704 mmHg 37%
    02:00 +3°C° 0.1 mm 2 mps 704 mmHg 43%
    03:00 +3°C° 0.1 mm 2 mps 704 mmHg 48%
    04:00 +3°C° 0.1 mm 2 mps 704 mmHg 54%
    05:00 +5°C° 0.1 mm 1 mps 704 mmHg 54%
    06:00 +5°C° 0.1 mm 1 mps 704 mmHg 53%
    07:00 +6°C° 0.1 mm 1 mps 703 mmHg 52%
    08:00 +7°C° 0 mm 1 mps 703 mmHg 47%
    09:00 +8°C° 0 mm 1 mps 703 mmHg 41%
    10:00 +9°C° 0 mm 1 mps 703 mmHg 35%
    11:00 +9°C° 0 mm 1 mps 702 mmHg 34%
    12:00 +10°C° 0 mm 1 mps 702 mmHg 32%
    13:00 +10°C° 0 mm 1 mps 702 mmHg 30%
    14:00 +10°C° 0 mm 1 mps 701 mmHg 30%
    15:00 +9°C° 0 mm 2 mps 701 mmHg 29%
    16:00 +9°C° 0 mm 2 mps 700 mmHg 28%
    17:00 +8°C° 0 mm 2 mps 700 mmHg 30%
    18:00 +7°C° 0 mm 2 mps 700 mmHg 32%
    19:00 +5°C° 0 mm 3 mps 700 mmHg 34%
    20:00 +5°C° 0 mm 3 mps 700 mmHg 34%
    21:00 +5°C° 0 mm 4 mps 700 mmHg 34%
    22:00 +4°C° 0 mm 4 mps 700 mmHg 34%
    23:00 +4°C° 0 mm 4 mps 700 mmHg 35%

    Tomorrow, 27 April, Saturday

    Time Temperature Precipitation Wind Pressure Humidity
    00:00 +3°C° 0 mm 5 mps 700 mmHg 36%
    01:00 +2°C° 0 mm 5 mps 699 mmHg 37%
    02:00 +2°C° 0.2 mm 5 mps 699 mmHg 41%
    03:00 +1°C° 0.2 mm 6 mps 699 mmHg 45%
    04:00 +1°C° 0.2 mm 6 mps 699 mmHg 49%
    05:00 -1°C° 0.1 mm 7 mps 699 mmHg 51%
    06:00 -1°C° 0.1 mm 7 mps 699 mmHg 54%
    07:00 -2°C° 0.1 mm 8 mps 699 mmHg 57%
    08:00 -1°C° 0.1 mm 8 mps 700 mmHg 55%
    09:00 0°C° 0.1 mm 9 mps 700 mmHg 53%
    10:00 +1°C° 0.1 mm 9 mps 701 mmHg 51%
    11:00 +1°C° 0 mm 9 mps 701 mmHg 47%
    12:00 +2°C° 0 mm 9 mps 702 mmHg 43%
    13:00 +2°C° 0 mm 9 mps 702 mmHg 39%
    14:00 +2°C° 0 mm 8 mps 703 mmHg 36%
    15:00 +2°C° 0 mm 8 mps 703 mmHg 34%
    16:00 +3°C° 0 mm 7 mps 704 mmHg 32%
    17:00 +2°C° 0 mm 6 mps 704 mmHg 34%
    18:00 +1°C° 0 mm 6 mps 705 mmHg 36%
    19:00 +1°C° 0 mm 5 mps 705 mmHg 38%
    20:00 0°C° 0 mm 5 mps 706 mmHg 38%
    21:00 -1°C° 0 mm 4 mps 706 mmHg 39%
    22:00 -2°C° 0 mm 4 mps 707 mmHg 40%
    23:00 -1°C° 0 mm 3 mps 707 mmHg 41%

    Day after tomorrow, 28 April, Sunday

    Time Temperature Precipitation Wind Pressure Humidity
    00:00 -2°C° 0 mm 3 mps 707 mmHg 42%
    01:00 -3°C° 0 mm 2 mps 707 mmHg 43%
    02:00 -3°C° 0 mm 2 mps 707 mmHg 44%
    03:00 -4°C° 0 mm 2 mps 708 mmHg 45%
    04:00 -4°C° 0 mm 2 mps 708 mmHg 46%
    05:00 -3°C° 0 mm 2 mps 708 mmHg 42%
    06:00 +1°C° 0 mm 1 mps 709 mmHg 37%
    07:00 +2°C° 0 mm 1 mps 709 mmHg 33%
    08:00 +3°C° 0 mm 1 mps 709 mmHg 32%
    09:00 +4°C° 0 mm 1 mps 709 mmHg 31%
    10:00 +5°C° 0 mm 1 mps 709 mmHg 30%
    11:00 +5°C° 0 mm 1 mps 709 mmHg 33%
    12:00 +5°C° 0 mm 1 mps 708 mmHg 36%
    13:00 +5°C° 0 mm 1 mps 708 mmHg 38%
    14:00 +4°C° 0 mm 2 mps 708 mmHg 37%
    15:00 +5°C° 0 mm 2 mps 708 mmHg 35%
    16:00 +4°C° 0 mm 3 mps 707 mmHg 34%
    17:00 +4°C° 0 mm 2 mps 707 mmHg 36%
    18:00 +3°C° 0 mm 2 mps 707 mmHg 37%
    19:00 +3°C° 0 mm 1 mps 707 mmHg 39%
    20:00 +2°C° 0 mm 1 mps 708 mmHg 40%
    21:00 +1°C° 0 mm 0 mps 708 mmHg 41%
    22:00 0°C° 0 mm 0 mps 708 mmHg 42%
    23:00 0°C° 0 mm 0 mps 708 mmHg 43%

    29 April, Monday

    Time Temperature Precipitation Wind Pressure Humidity
    00:00 -1°C° 0 mm 0 mps 707 mmHg 44%
    01:00 0°C° 0 mm 1 mps 707 mmHg 45%
    02:00 0°C° 0 mm 1 mps 707 mmHg 47%
    03:00 -1°C° 0 mm 1 mps 707 mmHg 50%
    04:00 -3°C° 0 mm 2 mps 708 mmHg 52%
    05:00 -1°C° 0 mm 2 mps 708 mmHg 50%
    06:00 +1°C° 0 mm 2 mps 708 mmHg 47%
    07:00 +1°C° 0 mm 3 mps 708 mmHg 44%
    08:00 +2°C° 0 mm 3 mps 708 mmHg 41%
    09:00 +3°C° 0 mm 3 mps 708 mmHg 38%
    10:00 +4°C° 0 mm 3 mps 708 mmHg 35%
    11:00 +4°C° 0 mm 3 mps 707 mmHg 34%
    12:00 +5°C° 0 mm 4 mps 707 mmHg 33%
    13:00 +5°C° 0 mm 4 mps 707 mmHg 32%
    14:00 +5°C° 0 mm 4 mps 706 mmHg 32%
    15:00 +5°C° 0 mm 4 mps 706 mmHg 32%
    16:00 +5°C° 0 mm 4 mps 706 mmHg 31%
    17:00 +4°C° 0 mm 3 mps 706 mmHg 34%
    18:00 +3°C° 0 mm 3 mps 706 mmHg 38%
    19:00 +3°C° 0 mm 2 mps 706 mmHg 41%
    20:00 +2°C° 0 mm 2 mps 706 mmHg 42%
    21:00 +2°C° 0 mm 2 mps 706 mmHg 44%
    22:00 +1°C° 0 mm 2 mps 706 mmHg 46%
    23:00 +1°C° 0 mm 2 mps 705 mmHg 49%

    30 April, Tuesday

    Time Temperature Precipitation Wind Pressure Humidity
    00:00 +1°C° 0 mm 2 mps 705 mmHg 52%
    01:00 -1°C° 0 mm 2 mps 705 mmHg 55%
    02:00 -1°C° 0.3 mm 2 mps 705 mmHg 65%
    03:00 -2°C° 0.3 mm 2 mps 704 mmHg 75%
    04:00 -2°C° 0.3 mm 2 mps 704 mmHg 85%
    05:00 -2°C° 0.3 mm 3 mps 704 mmHg 85%
    06:00 -1°C° 0.3 mm 3 mps 703 mmHg 84%
    07:00 -1°C° 0.3 mm 3 mps 703 mmHg 83%
    08:00 -1°C° 0.4 mm 4 mps 703 mmHg 77%
    09:00 -1°C° 0.4 mm 4 mps 703 mmHg 72%
    10:00 0°C° 0.4 mm 4 mps 702 mmHg 67%
    11:00 +1°C° 0.2 mm 4 mps 702 mmHg 61%
    12:00 +1°C° 0.2 mm 4 mps 702 mmHg 56%
    13:00 +2°C° 0.2 mm 5 mps 702 mmHg 50%
    14:00 +3°C° 0.1 mm 4 mps 702 mmHg 51%
    15:00 +3°C° 0.1 mm 4 mps 701 mmHg 52%
    16:00 +3°C° 0.1 mm 3 mps 701 mmHg 53%
    17:00 +2°C° 0.1 mm 3 mps 701 mmHg 58%
    18:00 +1°C° 0.1 mm 3 mps 702 mmHg 63%
    19:00 +1°C° 0.1 mm 2 mps 702 mmHg 67%
    20:00 -1°C° 0 mm 2 mps 702 mmHg 67%
    21:00 +1°C° 0 mm 1 mps 702 mmHg 67%
    22:00 0°C° 0 mm 1 mps 702 mmHg 67%
    23:00 -1°C° 0 mm 0 mps 702 mmHg 67%

    1 May, Wednesday

    Time Temperature Precipitation Wind Pressure Humidity
    00:00 -1°C° 0 mm 0 mps 701 mmHg 67%
    01:00 -2°C° 0 mm 0 mps 701 mmHg 67%
    02:00 -2°C° 0 mm 0 mps 701 mmHg 69%
    03:00 -2°C° 0 mm 0 mps 701 mmHg 70%
    04:00 -1°C° 0 mm 1 mps 701 mmHg 71%
    05:00 0°C° 0 mm 1 mps 701 mmHg 71%
    06:00 -1°C° 0 mm 2 mps 701 mmHg 71%
    07:00 +1°C° 0 mm 2 mps 701 mmHg 70%
    08:00 +1°C° 0.1 mm 3 mps 700 mmHg 67%
    09:00 +2°C° 0.1 mm 3 mps 700 mmHg 64%
    10:00 +3°C° 0.1 mm 3 mps 700 mmHg 61%
    11:00 +3°C° 0.4 mm 3 mps 699 mmHg 65%
    12:00 +3°C° 0.4 mm 3 mps 699 mmHg 68%
    13:00 +3°C° 0.4 mm 3 mps 698 mmHg 71%
    14:00 +3°C° 0.5 mm 3 mps 698 mmHg 75%
    15:00 +2°C° 0.5 mm 3 mps 698 mmHg 79%
    16:00 +2°C° 0.5 mm 3 mps 698 mmHg 82%
    17:00 0°C° 1.1 mm 4 mps 698 mmHg 85%
    18:00 0°C° 1.1 mm 5 mps 699 mmHg 87%
    19:00 -2°C° 1.1 mm 6 mps 699 mmHg 90%
    20:00 -3°C° 0.6 mm 6 mps 700 mmHg 88%
    21:00 -4°C° 0.6 mm 6 mps 700 mmHg 86%
    22:00 -5°C° 0.6 mm 5 mps 701 mmHg 84%
    23:00 -5°C° 0 mm 5 mps 701 mmHg 85%
    Show more